• în România
  • Lista ţărilor
  • Pe 7 zile
  • Temperatura apei
  • Hartă satelitară
  • Meteo pe hartă
  • Widget-uri
  • user-avatar
    Intrare

    Meteo pe oră la Szolnok

    Astăzi, 21 Septembrie, Vineri

    Timp Temperatura Precipitaţii Vânt Presiune Umiditate
    00:00 +22°C° 0 mm 1 m/s 756 mmHg 47%
    01:00 +21°C° 0 mm 1 m/s 756 mmHg 49%
    02:00 +21°C° 0 mm 1 m/s 756 mmHg 51%
    03:00 +21°C° 0 mm 1 m/s 756 mmHg 52%
    04:00 +20°C° 0 mm 1 m/s 756 mmHg 54%
    05:00 +21°C° 0 mm 1 m/s 756 mmHg 53%
    06:00 +21°C° 0 mm 1 m/s 756 mmHg 52%
    07:00 +21°C° 0 mm 2 m/s 756 mmHg 51%
    08:00 +24°C° 0 mm 2 m/s 756 mmHg 45%
    09:00 +26°C° 0 mm 2 m/s 756 mmHg 39%
    10:00 +28°C° 0 mm 3 m/s 755 mmHg 33%
    11:00 +29°C° 0 mm 3 m/s 755 mmHg 30%
    12:00 +30°C° 0 mm 3 m/s 754 mmHg 27%
    13:00 +31°C° 0 mm 3 m/s 754 mmHg 25%
    14:00 +31°C° 0 mm 3 m/s 753 mmHg 24%
    15:00 +31°C° 0 mm 3 m/s 753 mmHg 23%
    16:00 +31°C° 0 mm 3 m/s 753 mmHg 23%
    17:00 +29°C° 0 mm 3 m/s 753 mmHg 25%
    18:00 +27°C° 0 mm 3 m/s 753 mmHg 27%
    19:00 +25°C° 0 mm 3 m/s 753 mmHg 30%
    20:00 +24°C° 0 mm 3 m/s 753 mmHg 32%
    21:00 +24°C° 0 mm 3 m/s 753 mmHg 34%
    22:00 +22°C° 0 mm 3 m/s 753 mmHg 36%
    23:00 +22°C° 0 mm 3 m/s 753 mmHg 39%

    Mâine, 22 Septembrie, Sâmbătă

    Timp Temperatura Precipitaţii Vânt Presiune Umiditate
    00:00 +21°C° 0 mm 3 m/s 753 mmHg 42%
    01:00 +20°C° 0 mm 3 m/s 753 mmHg 45%
    02:00 +20°C° 0 mm 3 m/s 753 mmHg 47%
    03:00 +20°C° 0 mm 2 m/s 753 mmHg 48%
    04:00 +20°C° 0 mm 2 m/s 753 mmHg 50%
    05:00 +20°C° 0 mm 3 m/s 754 mmHg 50%
    06:00 +21°C° 0 mm 4 m/s 754 mmHg 50%
    07:00 +21°C° 0 mm 5 m/s 755 mmHg 50%
    08:00 +22°C° 0 mm 7 m/s 755 mmHg 45%
    09:00 +23°C° 0 mm 8 m/s 756 mmHg 40%
    10:00 +23°C° 0 mm 9 m/s 756 mmHg 36%
    11:00 +22°C° 0 mm 8 m/s 757 mmHg 38%
    12:00 +20°C° 0 mm 8 m/s 757 mmHg 40%
    13:00 +18°C° 0 mm 7 m/s 757 mmHg 43%
    14:00 +16°C° 0.4 mm 6 m/s 758 mmHg 50%
    15:00 +15°C° 0.4 mm 6 m/s 758 mmHg 58%
    16:00 +13°C° 0.4 mm 5 m/s 758 mmHg 66%
    17:00 +13°C° 0.1 mm 5 m/s 759 mmHg 68%
    18:00 +12°C° 0.1 mm 4 m/s 759 mmHg 70%
    19:00 +12°C° 0.1 mm 4 m/s 759 mmHg 73%
    20:00 +12°C° 0 mm 4 m/s 760 mmHg 73%
    21:00 +12°C° 0 mm 4 m/s 760 mmHg 73%
    22:00 +12°C° 0 mm 3 m/s 761 mmHg 73%
    23:00 +12°C° 0 mm 3 m/s 761 mmHg 75%

    Poimâine, 23 Septembrie, Duminică

    Timp Temperatura Precipitaţii Vânt Presiune Umiditate
    00:00 +12°C° 0 mm 3 m/s 760 mmHg 76%
    01:00 +12°C° 0 mm 3 m/s 760 mmHg 77%
    02:00 +11°C° 0 mm 3 m/s 760 mmHg 79%
    03:00 +11°C° 0 mm 3 m/s 761 mmHg 81%
    04:00 +12°C° 0 mm 2 m/s 761 mmHg 83%
    05:00 +12°C° 0 mm 2 m/s 761 mmHg 80%
    06:00 +13°C° 0 mm 2 m/s 761 mmHg 78%
    07:00 +13°C° 0 mm 2 m/s 761 mmHg 75%
    08:00 +15°C° 0 mm 2 m/s 761 mmHg 67%
    09:00 +16°C° 0 mm 3 m/s 761 mmHg 59%
    10:00 +18°C° 0 mm 3 m/s 761 mmHg 50%
    11:00 +19°C° 0 mm 3 m/s 761 mmHg 46%
    12:00 +19°C° 0 mm 3 m/s 761 mmHg 43%
    13:00 +20°C° 0 mm 3 m/s 760 mmHg 39%
    14:00 +20°C° 0 mm 3 m/s 760 mmHg 39%
    15:00 +20°C° 0 mm 3 m/s 759 mmHg 40%
    16:00 +20°C° 0 mm 2 m/s 759 mmHg 41%
    17:00 +19°C° 0 mm 2 m/s 758 mmHg 44%
    18:00 +18°C° 0 mm 2 m/s 758 mmHg 48%
    19:00 +17°C° 0 mm 2 m/s 758 mmHg 51%
    20:00 +17°C° 0 mm 2 m/s 758 mmHg 50%
    21:00 +17°C° 0 mm 3 m/s 757 mmHg 50%
    22:00 +17°C° 0 mm 3 m/s 757 mmHg 49%
    23:00 +17°C° 0 mm 4 m/s 756 mmHg 47%

    24 Septembrie, Luni

    Timp Temperatura Precipitaţii Vânt Presiune Umiditate
    00:00 +17°C° 0 mm 4 m/s 755 mmHg 46%
    01:00 +16°C° 0 mm 5 m/s 754 mmHg 44%
    02:00 +16°C° 0 mm 5 m/s 753 mmHg 44%
    03:00 +16°C° 0 mm 5 m/s 752 mmHg 44%
    04:00 +16°C° 0 mm 6 m/s 751 mmHg 44%
    05:00 +17°C° 0 mm 6 m/s 750 mmHg 44%
    06:00 +18°C° 0 mm 7 m/s 749 mmHg 45%
    07:00 +20°C° 0 mm 7 m/s 749 mmHg 45%
    08:00 +21°C° 0.4 mm 7 m/s 749 mmHg 51%
    09:00 +22°C° 0.4 mm 7 m/s 749 mmHg 57%
    10:00 +23°C° 0.4 mm 8 m/s 749 mmHg 63%
    11:00 +22°C° 0.8 mm 8 m/s 750 mmHg 59%
    12:00 +19°C° 0.8 mm 9 m/s 751 mmHg 55%
    13:00 +17°C° 0.8 mm 9 m/s 751 mmHg 50%
    14:00 +17°C° 0 mm 10 m/s 752 mmHg 47%
    15:00 +17°C° 0 mm 11 m/s 753 mmHg 43%
    16:00 +17°C° 0 mm 11 m/s 754 mmHg 39%
    17:00 +16°C° 0 mm 9 m/s 755 mmHg 41%
    18:00 +15°C° 0 mm 7 m/s 756 mmHg 43%
    19:00 +13°C° 0 mm 5 m/s 757 mmHg 45%
    20:00 +13°C° 0 mm 5 m/s 758 mmHg 45%
    21:00 +12°C° 0 mm 5 m/s 759 mmHg 46%
    22:00 +12°C° 0 mm 5 m/s 760 mmHg 46%
    23:00 +10°C° 0 mm 5 m/s 760 mmHg 48%

    25 Septembrie, Marţi

    Timp Temperatura Precipitaţii Vânt Presiune Umiditate
    00:00 +10°C° 0 mm 6 m/s 761 mmHg 50%
    01:00 +10°C° 0 mm 6 m/s 761 mmHg 52%
    02:00 +9°C° 0 mm 6 m/s 762 mmHg 53%
    03:00 +9°C° 0 mm 6 m/s 762 mmHg 53%
    04:00 +8°C° 0 mm 5 m/s 762 mmHg 54%
    05:00 +9°C° 0 mm 6 m/s 763 mmHg 54%
    06:00 +9°C° 0 mm 6 m/s 763 mmHg 54%
    07:00 +9°C° 0 mm 7 m/s 764 mmHg 53%
    08:00 +10°C° 0 mm 7 m/s 764 mmHg 46%
    09:00 +12°C° 0 mm 7 m/s 765 mmHg 40%
    10:00 +14°C° 0 mm 7 m/s 765 mmHg 33%
    11:00 +14°C° 0 mm 6 m/s 765 mmHg 31%
    12:00 +15°C° 0 mm 6 m/s 765 mmHg 29%
    13:00 +16°C° 0 mm 6 m/s 765 mmHg 27%
    14:00 +15°C° 0 mm 5 m/s 765 mmHg 27%
    15:00 +15°C° 0 mm 5 m/s 765 mmHg 27%
    16:00 +15°C° 0 mm 5 m/s 764 mmHg 27%
    17:00 +14°C° 0 mm 4 m/s 765 mmHg 30%
    18:00 +12°C° 0 mm 3 m/s 765 mmHg 33%
    19:00 +11°C° 0 mm 3 m/s 765 mmHg 36%
    20:00 +10°C° 0 mm 3 m/s 765 mmHg 38%
    21:00 +10°C° 0 mm 3 m/s 765 mmHg 41%
    22:00 +10°C° 0 mm 3 m/s 765 mmHg 43%
    23:00 +10°C° 0 mm 3 m/s 765 mmHg 44%

    26 Septembrie, Miercuri

    Timp Temperatura Precipitaţii Vânt Presiune Umiditate
    00:00 +10°C° 0 mm 4 m/s 764 mmHg 45%
    01:00 +10°C° 0 mm 4 m/s 764 mmHg 46%
    02:00 +10°C° 0 mm 4 m/s 763 mmHg 48%
    03:00 +9°C° 0 mm 5 m/s 763 mmHg 50%
    04:00 +9°C° 0 mm 5 m/s 762 mmHg 51%
    05:00 +9°C° 0.1 mm 6 m/s 762 mmHg 55%
    06:00 +9°C° 0.1 mm 7 m/s 762 mmHg 58%
    07:00 +9°C° 0.1 mm 8 m/s 762 mmHg 61%
    08:00 +11°C° 0 mm 7 m/s 762 mmHg 53%
    09:00 +14°C° 0 mm 7 m/s 763 mmHg 44%
    10:00 +15°C° 0 mm 6 m/s 763 mmHg 36%
    11:00 +16°C° 0 mm 6 m/s 763 mmHg 34%
    12:00 +16°C° 0 mm 6 m/s 763 mmHg 32%
    13:00 +17°C° 0 mm 6 m/s 763 mmHg 30%
    14:00 +17°C° 0 mm 5 m/s 763 mmHg 31%
    15:00 +16°C° 0 mm 5 m/s 763 mmHg 32%
    16:00 +16°C° 0 mm 5 m/s 763 mmHg 34%
    17:00 +15°C° 0 mm 4 m/s 764 mmHg 38%
    18:00 +13°C° 0 mm 3 m/s 764 mmHg 43%
    19:00 +13°C° 0 mm 2 m/s 765 mmHg 47%
    20:00 +12°C° 0 mm 2 m/s 765 mmHg 50%
    21:00 +12°C° 0 mm 2 m/s 766 mmHg 53%
    22:00 +10°C° 0 mm 2 m/s 766 mmHg 56%
    23:00 +10°C° 0 mm 2 m/s 766 mmHg 58%
    Arată mai mult